Location: Eboldshausen
(51.7766°N, 10.0050°E)
Time: 16:31:13
(UTC+00:00)

CORIOLIS - Pass Details

Date: 15 November 2025
Orbit: 815 x 836 km, 98.7° (Epoch: 09 December)

Event Time Altitude Azimuth Distance (km) Brightness Sun altitude
Rises 16:30:00 0° 164° (SSE) 3,351 7.3 -9.4°
Reaches altitude 10° 16:32:20 10° 164° (SSE) 2,419 6.6 -9.7°
Maximum altitude 16:37:42 86° 254° (WSW) 830 4.2 -10.5°
Drops below altitude 10° 16:43:06 10° 344° (NNW) 2,424 6.6 -11.3°
Sets 16:45:27 0° 345° (NNW) 3,359 7.3 -11.7°
